Actual water levels and discharges of Morava river

Lanžhot

Date and time (UTC) H (cm) Q (m3/s)
21. 11. 2019 02:10 48 34
21. 11. 2019 02:00 48 34
21. 11. 2019 01:00 49 34
21. 11. 2019 00:00 50 35
20. 11. 2019 23:00 52 36
20. 11. 2019 22:00 55 37
20. 11. 2019 21:00 56 38
20. 11. 2019 20:00 56 38
20. 11. 2019 19:00 57 38
20. 11. 2019 18:00 57 38
20. 11. 2019 17:00 56 38
20. 11. 2019 16:00 55 37
20. 11. 2019 15:00 55 37
20. 11. 2019 14:00 54 37

H - vodni stav, Q - discharge

Strážnice

Date and time (UTC) H (cm) Q (m3/s)
21. 11. 2019 02:40 123 26
21. 11. 2019 02:00 123 26
21. 11. 2019 01:00 122 26
21. 11. 2019 00:00 121 25
20. 11. 2019 23:00 120 25
20. 11. 2019 22:00 118 24
20. 11. 2019 21:00 117 23
20. 11. 2019 20:00 116 23
20. 11. 2019 19:00 115 22
20. 11. 2019 18:00 115 22
20. 11. 2019 17:00 115 22
20. 11. 2019 16:00 117 23
20. 11. 2019 15:00 120 25
20. 11. 2019 14:00 123 26

H - vodni stav, Q - discharge

Spytihněv

Date and time (UTC) H (cm) Q (m3/s)
21. 11. 2019 02:50 111 24
21. 11. 2019 02:00 109 23
21. 11. 2019 01:00 110 24
21. 11. 2019 00:00 114 26
20. 11. 2019 23:00 114 26
20. 11. 2019 22:00 114 26
20. 11. 2019 21:00 114 26
20. 11. 2019 20:00 112 25
20. 11. 2019 19:00 112 25
20. 11. 2019 18:00 112 25
20. 11. 2019 17:00 114 26
20. 11. 2019 16:00 112 25
20. 11. 2019 15:00 108 23
20. 11. 2019 14:00 115 27

H - vodni stav, Q - discharge

Kroměříž

Date and time (UTC) H (cm) Q (m3/s)
21. 11. 2019 02:50 141 20
21. 11. 2019 02:00 141 20
21. 11. 2019 01:00 141 20
21. 11. 2019 00:00 141 20
20. 11. 2019 23:00 141 20
20. 11. 2019 22:00 141 20
20. 11. 2019 21:00 142 21
20. 11. 2019 20:00 142 21
20. 11. 2019 19:00 142 21
20. 11. 2019 18:00 141 20
20. 11. 2019 17:00 141 20
20. 11. 2019 16:00 141 20
20. 11. 2019 15:00 141 20
20. 11. 2019 14:00 142 21

H - vodni stav, Q - discharge

Olomouc-Nové Sady tok

Date and time (UTC) H (cm) Q (m3/s)
21. 11. 2019 02:50 108 15
21. 11. 2019 02:00 108 15
21. 11. 2019 01:00 108 15
21. 11. 2019 00:00 108 15
20. 11. 2019 23:00 108 15
20. 11. 2019 22:00 108 15
20. 11. 2019 21:00 108 15
20. 11. 2019 20:00 109 15
20. 11. 2019 19:00 109 15
20. 11. 2019 18:00 109 15
20. 11. 2019 17:00 110 16
20. 11. 2019 16:00 110 16
20. 11. 2019 15:00 110 16
20. 11. 2019 14:00 110 16

H - vodni stav, Q - discharge

Moravičany

Date and time (UTC) H (cm) Q (m3/s)
21. 11. 2019 02:50 89 9
21. 11. 2019 02:00 89 9
21. 11. 2019 01:00 90 10
21. 11. 2019 00:00 89 9
20. 11. 2019 23:00 90 10
20. 11. 2019 22:00 89 9
20. 11. 2019 21:00 90 10
20. 11. 2019 20:00 90 10
20. 11. 2019 19:00 90 10
20. 11. 2019 18:00 90 10
20. 11. 2019 17:00 90 10
20. 11. 2019 16:00 90 10
20. 11. 2019 15:00 90 10
20. 11. 2019 14:00 90 10

H - vodni stav, Q - discharge
Source data
Labe Basin Vltava Basin ČHMÚ